Location: Lafig�re
(44.4503°N, 4.0357°E)
Time: 14:43:06
(UTC+00:00)

Tiros 1 despin weight - Visible Passes

Search period start: 23 January 2021 00:00
Search period end: 02 February 2021 00:00
Orbit: 594 x 641 km, 48.2° (Epoch: 22 January)

Date Brightness Start Highest point End Pass type
(mag) Time Alt. Az. Time Alt. Az. Time Alt. Az.
23 Jan ? 18:22:10 10° WNW 18:26:37 66° NNE 18:27:50 44° ENE visible
23 Jan ? 20:03:52 10° WNW 20:04:54 16° W 20:04:54 16° W visible
24 Jan ? 18:38:35 10° WNW 18:43:04 90° SW 18:43:47 63° ESE visible
24 Jan ? 20:20:37 10° W 20:20:51 11° W 20:20:51 11° W visible
25 Jan ? 17:13:22 10° WNW 17:17:49 58° N 17:22:12 10° E visible
25 Jan ? 18:55:02 10° WNW 18:59:25 58° SSW 18:59:50 55° S visible
26 Jan ? 17:29:49 10° WNW 17:34:19 75° NNE 17:38:45 10° ESE visible
26 Jan ? 19:11:37 10° WNW 19:15:39 34° SW 19:16:00 34° SSW visible
27 Jan ? 17:46:14 10° WNW 17:50:44 77° SSW 17:55:08 10° ESE visible
27 Jan ? 19:28:33 10° W 19:31:45 19° SW 19:32:21 19° SSW visible
28 Jan ? 18:02:43 10° WNW 18:07:02 47° SSW 18:11:16 10° SE visible
29 Jan ? 18:19:24 10° W 18:23:12 27° SW 18:26:57 10° SSE visible
30 Jan ? 18:36:40 10° W 18:39:15 15° SW 18:41:48 10° S visible
01 Feb ? 17:27:16 10° W 17:30:44 22° SW 17:34:08 10° S visible
